OneWeb SL0272

operational
NORAD ID: 48990 Int'l Des: 2021-060 Owner: ONEWEBN Country: UK Constellation: oneweb
LEOCIRCULARPOLARONEWEB_TYPE

关于 OneWeb SL0272

正在加载描述...

实时位置

正在加载3D地球...

即将过境

高度历史

Altitude vs Time

uPlot chart will show altitude changes over time

两行轨道根数

1 48990U 21060Z 25354.67613763 .00000096 00000-0 21656-3 0 9995
2 48990 87.9046 264.3309 0001944 70.6182 289.5159 13.16597016216125
Epoch: Dec 20, 2025 • Age: 9 hours

当前状态

高度 1200.5 km
速度 7.25 km/s
星下点 -2.33°S, 154.27°E
发射日期 Jul 1, 2021
运行时间 4.4 years
类型 internet

技术详情

分类 Payload
质量 148.00 kg
干质量 140.00 kg
总质量 148.00 kg
长度 1.30 m
直径 1.00 m
跨度 5.00 m
形状 Trapezoid+2 pan
制造商 ONEWUS
平台类型 ARROW
阶段状态 In Orbit
所有者/国家 ONEWEBN/UK

大型星座

Loading constellations...